Weather History for Norfolk, NE

Change the Weather History Date:

Saturday, September 15, 2012

  Actual Average Record
Temperature  
Mean Temperature 67 °F 64 °F  
Max Temperature 83 °F 77 °F 99 °F (1955)
Min Temperature 51 °F 51 °F 30 °F (1916)
Degree Days  
Heating Degree Days 0 4  
Month to date heating degree days 13 35  
Since 1 July heating degree days 24 51  
Cooling Degree Days 2 3  
Month to date cooling degree days 100 66  
Year to date cooling degree days 1367 882  
Growing Degree Days 17 (Base 50)    
Moisture  
Dew Point 41 °F    
Average Humidity 45    
Maximum Humidity 73    
Minimum Humidity 17    
Precipitation  
Precipitation 0.00 in 0.09 in 1.96 in (1988)
Month to date precipitation 0.61 1.35  
Year to date precipitation 12.45 21.88  
Snow  
Snow 0.00 in 0.00 in - ()
Month to date snowfall 0.0 0.0  
Since 1 July snowfall 0.0 0.0  
Snow Depth 0.00 in    
Sea Level Pressure  
Sea Level Pressure 30.13 in    
Wind  
Wind Speed 12 mph (South)    
Max Wind Speed 21 mph    
Max Gust Speed 26 mph    
Visibility 10 miles    
Events      
T = Trace of Precipitation, MM = Missing Value Source: NWS Daily Summary

Daily Weather History Graph

Daily Weather History Graph

Search for Another Location

Airport:

Trip Planner

Search our weather history database for the weather conditions in past years. The results will help you decide how hot, cold, wet, or windy it might be!

Date:

Astronomy

Sep. 15, 2012 Rise Set
Actual Time 7:10 AM CDT 7:38 PM CDT
Civil Twilight 6:42 AM CDT 8:06 PM CDT
Nautical Twilight 6:09 AM CDT 8:39 PM CDT
Astronomical Twilight 5:35 AM CDT 9:13 PM CDT
Moon 6:43 AM CDT (9/15) 7:08 PM CDT (9/15)
Length of Visible Light 13h 23m
Length of Day
12h 27m
Waning Crescent, 0% of the Moon is Illuminated
Sep 15
Waning Crescent
Sep 15
New
Sep 22
First Quarter
Sep 29
Full
Oct 8
Last Quarter

Hourly Weather History & Observations

Time (CDT) Temp. Dew Point Humidity Pressure Visibility Wind Dir Wind Speed Gust Speed Precip Events Conditions
12:56 AM 59.0 °F 43.0 °F 55% 30.21 in 10.0 mi South 17.3 mph - N/A   Clear
1:56 AM 57.0 °F 43.0 °F 59% 30.20 in 10.0 mi South 16.1 mph - N/A   Clear
2:56 AM 55.9 °F 43.0 °F 62% 30.21 in 10.0 mi SSW 13.8 mph - N/A   Clear
3:56 AM 55.0 °F 43.0 °F 64% 30.21 in 10.0 mi South 11.5 mph - N/A   Clear
5:56 AM 53.1 °F 42.1 °F 66% 30.20 in 10.0 mi SSW 10.4 mph - N/A   Clear
6:56 AM 52.0 °F 41.0 °F 66% 30.21 in 10.0 mi SW 6.9 mph - N/A   Clear
7:56 AM 53.1 °F 42.1 °F 66% 30.22 in 10.0 mi SSW 5.8 mph - N/A   Clear
8:56 AM 59.0 °F 42.1 °F 53% 30.20 in 10.0 mi SW 10.4 mph - N/A   Clear
9:56 AM 64.9 °F 42.1 °F 43% 30.19 in 10.0 mi SW 11.5 mph - N/A   Clear
10:56 AM 71.1 °F 41.0 °F 34% 30.17 in 10.0 mi South 12.7 mph - N/A   Clear
11:56 AM 75.9 °F 37.9 °F 25% 30.16 in 10.0 mi South 11.5 mph - N/A   Clear
12:56 PM 79.0 °F 37.9 °F 23% 30.12 in 10.0 mi South 16.1 mph 20.7 mph N/A   Clear
1:56 PM 81.0 °F 36.0 °F 20% 30.10 in 10.0 mi SSW 16.1 mph - N/A   Clear
2:56 PM 82.0 °F 35.1 °F 18% 30.08 in 10.0 mi South 13.8 mph - N/A   Clear
3:56 PM 82.9 °F 35.1 °F 18% 30.06 in 10.0 mi SSW 17.3 mph 21.9 mph N/A   Clear
4:56 PM 82.0 °F 34.0 °F 18% 30.05 in 10.0 mi South 13.8 mph - N/A   Clear
5:56 PM 80.1 °F 35.1 °F 20% 30.04 in 10.0 mi South 12.7 mph - N/A   Clear
6:56 PM 75.0 °F 37.0 °F 25% 30.04 in 10.0 mi SSE 6.9 mph - N/A   Clear
7:56 PM 68.0 °F 39.9 °F 36% 30.04 in 10.0 mi SSE 10.4 mph - N/A   Clear
8:56 PM 68.0 °F 45.0 °F 43% 30.04 in 10.0 mi SSE 11.5 mph - N/A   Clear
9:56 PM 66.0 °F 48.0 °F 52% 30.03 in 10.0 mi South 11.5 mph - N/A   Clear
10:56 PM 66.0 °F 54.0 °F 65% 30.03 in 10.0 mi South 12.7 mph - N/A   Clear
11:56 PM 64.0 °F 55.0 °F 73% 30.01 in 10.0 mi South 13.8 mph - N/A   Clear